RH
17 15 12 15 15 12 16 16 23 42 50 45 43 44 47 52 53 70 70 71 79 83 83 85 72 73 72 73 74 71 68 62 53 47 43 37 30 35 34 38 44 51 61 59 48 43 43 42 39
13 15 14 12 12 14 13 13 28 46 43 40 40 42 44 62 62 83 75 84 83 84 80 80 75 79 76 77 76 71 60 50 44 40 30 22 26 27 33 39 50 62 68 61 60 44 38 42 44
18 14 11 11 10 12 15 28 39 38 36 50 50 46 53 61 72 73 85 93 88 83 74 84 78 78 77 78 70 57 46 42 39 33 27 28 28 31 39 54 61 70 73 69 60 44 38 35 36
11 11 10 12 12 12 24 35 34 38 32 34 71 53 68 77 77 79 94 94 92 81 79 87 80 77 80 75 57 49 44 41 40 39 36 28 29 43 51 54 59 61 63 57 50 48 44 42 34
13 10 12 13 13 12 23 35 36 38 49 34 34 60 64 79 85 82 95 93 89 82 82 94 81 77 90 70 62 50 45 46 45 45 36 36 47 50 52 51 51 52 50 48 45 45 45 45 44
10 10 12 15 22 22 22 33 32 34 32 37 38 39 73 84 89 94 94 89 81 81 85 92 83 81 85 74 63 51 51 48 46 39 44 48 51 53 51 50 50 50 49 46 44 43 44 45 45
11 10 14 23 28 34 31 31 32 28 28 38 33 51 86 88 87 97 84 81 86 85 87 91 91 92 84 75 59 52 50 47 44 49 53 52 52 53 55 54 54 52 49 47 43 41 40 40 40
11 11 22 25 27 35 35 30 25 29 30 34 39 48 93 85 85 86 81 89 98 99 97 89 78 79 82 82 56 50 47 50 51 56 58 58 57 57 56 60 55 53 50 49 46 44 41 35 32
12 12 18 29 29 38 36 36 29 28 36 38 41 44 54 91 93 92 92 97 100 99 99 86 72 74 74 66 72 54 51 60 63 62 61 67 65 66 65 54 51 47 48 49 47 47 36 39 42
13 13 12 15 23 26 27 29 30 37 38 40 49 60 83 96 96 91 94 97 99 100 98 80 75 80 74 60 66 66 66 69 72 72 77 71 80 77 72 56 50 48 49 50 47 37 41 43 41
12 13 12 20 24 25 27 35 35 31 38 34 38 81 88 93 92 86 82 85 93 82 71 77 81 78 63 59 60 61 68 73 78 85 83 86 84 80 67 59 58 60 55 50 47 44 45 52 45
14 12 11 22 22 19 26 28 31 27 27 26 33 60 82 81 82 69 69 61 58 55 58 63 69 73 70 59 60 70 69 76 78 83 92 83 76 77 64 56 59 56 53 52 47 46 51 47 44
14 11 10 14 20 15 19 24 25 28 26 30 43 54 55 51 54 51 47 44 45 44 51 56 66 67 70 72 74 78 80 85 94 91 91 78 70 71 62 62 54 53 50 48 48 47 45 44 42
12 10 8 9 16 22 22 24 26 26 30 42 48 47 40 36 34 38 38 37 40 45 55 63 62 67 70 74 79 88 86 84 80 89 79 71 75 72 63 57 52 51 51 52 49 50 47 45 45
9 10 9 9 12 20 19 21 19 29 33 40 40 37 37 35 33 31 32 33 40 48 62 67 71 70 71 78 83 82 80 81 73 85 80 75 68 61 60 56 56 63 60 51 51 50 47 47 46
9 9 10 11 12 13 17 17 22 34 33 41 40 42 42 38 33 31 34 34 39 47 66 78 82 81 88 71 72 70 74 66 76 87 80 67 57 64 63 65 65 52 54 52 52 52 53 45 44
11 12 11 13 14 13 15 13 26 36 33 33 38 38 37 38 41 49 46 35 41 54 74 83 84 92 69 72 49 80 71 66 74 70 57 52 47 47 52 58 59 57 55 59 56 48 44 40 41
14 14 9 11 15 11 15 22 25 36 32 34 34 36 37 40 46 62 53 47 54 64 77 83 86 74 71 70 72 79 74 70 62 64 65 52 59 63 57 59 64 57 52 48 50 48 43 40 39
10 12 13 15 25 18 17 24 29 36 35 38 38 40 41 41 54 71 75 69 67 76 80 82 94 80 77 64 87 73 71 69 59 60 63 62 60 59 58 54 54 51 51 53 52 46 41 39 44
12 13 19 22 24 23 26 30 33 36 39 37 37 39 40 48 54 73 76 72 75 76 78 83 88 84 79 73 64 58 58 61 57 58 63 60 59 58 59 57 52 50 44 51 51 51 46 38 40
20 18 22 20 26 25 25 30 34 40 43 46 45 40 43 50 57 63 69 73 75 76 81 77 74 72 65 58 63 64 66 60 53 55 54 58 61 57 60 56 50 49 47 43 54 53 49 47 43
21 22 20 23 20 19 23 19 32 38 42 46 47 48 52 58 58 61 66 70 68 69 70 66 64 57 60 64 55 54 45 45 54 56 56 55 58 57 52 51 54 55 53 56 51 47 56 50 47
25 22 20 20 20 22 23 21 30 42 44 48 52 56 57 54 53 52 53 54 53 62 66 65 60 53 58 57 53 55 55 56 55 54 54 55 55 57 54 56 58 60 58 55 59 57 58 52 50
26 25 25 24 24 28 20 24 15 32 33 45 51 53 54 49 45 41 40 42 44 49 56 60 52 53 56 58 61 59 58 52 46 45 41 36 39 43 49 61 65 65 62 63 61 60 58 58 55
27 25 27 35 34 30 33 28 16 23 32 38 48 45 49 42 38 36 38 38 43 51 55 55 52 55 58 58 53 50 47 44 38 40 40 45 42 43 43 54 63 64 61 67 64 59 61 58 55
25 24 26 27 32 28 34 31 24 29 28 33 38 37 42 39 37 36 36 39 46 50 52 51 50 50 51 49 47 46 44 42 43 48 52 43 40 43 52 60 58 56 58 58 59 61 62 64 61
29 27 31 41 55 48 24 27 26 34 32 35 38 36 38 36 36 38 40 44 48 50 54 51 46 43 46 48 45 47 51 54 49 42 41 43 48 45 42 49 50 51 53 56 63 61 63 63 61
27 27 34 35 46 32 20 24 19 36 36 37 40 39 36 33 35 39 43 50 50 51 55 49 41 42 48 47 51 49 48 41 38 40 41 41 40 40 40 40 42 49 54 57 66 63 58 65 62
32 30 31 28 37 28 25 15 26 28 31 36 37 36 35 35 37 42 45 51 51 49 44 42 40 42 43 44 48 45 37 37 38 38 39 42 45 44 44 49 53 54 54 59 61 66 65 58 57
27 27 25 28 32 43 43 21 23 31 32 31 34 34 34 35 38 42 48 49 45 41 39 40 38 38 42 41 38 36 34 36 37 39 42 46 49 50 54 60 61 58 60 66 75 68 57 60 57
Wind_Speed
2 3 3 5 7 6 9 6 1 9 9 9 7 3 9 15 5 2 15 14 24 23 24 22 22 22 22 20 19 17 16 15 15 15 15 15 15 16 16 15 15 14 14 14 16 17 17 17 18
2 2 5 3 7 9 5 0 5 12 16 10 8 8 10 6 7 10 14 18 22 25 25 21 22 22 21 19 18 16 15 15 15 15 16 16 17 17 16 15 14 14 14 15 17 17 18 17 17
4 5 4 4 7 10 2 8 16 16 15 10 5 7 4 4 7 9 11 18 20 21 22 21 23 21 19 18 17 15 15 15 16 16 16 16 17 17 16 16 15 16 16 17 17 19 21 19 18
6 7 4 8 7 4 2 13 17 16 13 9 4 4 4 1 3 8 13 19 19 21 20 22 22 21 19 17 16 15 15 15 16 16 16 16 16 16 17 17 16 16 16 16 17 18 18 18 20
6 3 7 7 3 3 7 15 9 6 10 6 10 11 7 7 14 22 20 23 22 19 19 20 20 18 17 16 15 15 15 15 15 16 16 15 16 17 16 17 16 16 16 16 16 16 16 17 18
6 3 7 9 3 5 9 11 13 10 12 4 1 9 6 8 14 19 23 24 21 20 19 17 17 16 15 14 14 14 14 14 15 16 15 16 17 16 15 14 14 14 15 15 15 14 14 15 16
9 6 7 1 6 10 9 9 11 11 14 8 3 11 4 9 13 18 21 19 17 17 17 16 16 14 13 12 13 13 13 13 14 15 15 15 15 14 12 11 10 10 11 11 12 13 13 14 15
4 5 7 6 7 11 9 8 11 3 2 7 6 6 6 10 17 16 16 16 16 14 14 16 15 14 12 11 12 12 13 13 13 13 13 12 11 10 9 9 6 6 7 7 8 9 11 11 12
3 7 8 9 10 11 9 2 3 3 4 2 1 2 11 23 20 17 16 15 13 13 13 15 14 12 11 11 10 11 12 12 11 9 10 8 5 5 5 4 5 5 5 6 6 7 8 12 13
8 8 2 3 6 11 14 8 8 4 8 4 6 9 22 21 21 19 16 14 13 13 13 13 12 11 11 10 10 9 8 7 7 6 5 4 3 3 3 3 3 5 5 5 5 7 10 11 11
7 6 7 6 11 14 15 9 8 11 6 10 9 17 18 18 16 16 16 15 14 15 13 12 11 11 10 9 9 8 7 6 4 3 3 2 2 2 2 3 2 3 3 2 5 6 8 11 12
8 6 3 13 13 10 20 22 15 13 7 2 8 21 20 17 17 18 19 19 18 15 13 12 11 11 10 9 9 8 5 4 2 2 1 3 3 3 3 3 2 2 2 3 5 6 8 10 12
11 5 5 5 3 14 13 11 6 5 3 10 18 20 19 17 17 15 16 15 16 15 12 12 12 12 10 10 7 6 4 2 2 2 2 1 4 4 4 3 2 2 2 3 5 7 9 11 12
4 5 5 7 9 8 10 6 7 6 6 13 17 15 15 15 17 16 14 13 12 13 13 12 11 11 10 10 8 5 3 3 6 8 2 4 3 5 5 4 3 1 1 3 6 9 11 13 15
10 11 7 3 8 7 9 9 5 5 4 12 13 12 12 12 13 13 12 12 13 14 14 14 12 10 9 9 8 6 3 4 8 9 7 9 8 6 4 2 1 2 4 6 8 10 12 15 18
6 7 6 5 11 5 13 11 6 2 9 12 14 11 11 11 12 11 10 11 13 14 16 15 14 14 14 12 11 10 10 12 10 5 6 7 8 7 5 4 3 6 7 8 9 11 15 18 17
6 7 7 7 1 7 10 7 5 2 9 11 11 11 12 10 9 7 8 11 14 16 19 20 18 19 16 10 4 16 12 7 5 7 10 11 10 5 4 5 5 6 6 8 11 13 14 17 17
13 7 11 10 4 8 9 5 4 4 11 11 12 11 12 11 8 7 7 10 14 17 21 23 22 24 18 11 10 11 6 6 7 7 8 6 4 4 5 5 4 6 7 9 11 13 14 16 16
6 8 11 8 4 7 6 6 4 4 9 11 11 11 11 10 8 8 9 13 16 17 20 21 22 22 16 10 10 9 8 9 9 4 5 5 5 5 4 3 5 6 7 8 9 12 15 16 16
6 8 7 5 4 4 9 7 6 5 8 9 11 11 11 9 9 10 11 13 15 18 18 19 19 13 9 10 10 8 9 7 6 6 6 5 4 3 3 5 5 5 6 7 9 11 14 16 16
4 5 11 8 8 2 10 7 8 5 6 6 7 6 7 8 9 10 13 15 16 17 16 17 14 13 12 11 10 8 8 7 6 4 3 3 3 2 3 3 4 5 8 10 9 10 12 16 17
6 1 7 14 12 7 9 7 9 6 6 7 8 9 9 10 11 13 16 17 18 17 15 15 15 15 12 10 7 6 3 4 2 3 3 2 1 2 4 6 6 8 10 10 10 10 12 15 16
4 5 6 5 5 5 10 8 8 8 9 11 11 12 13 13 13 14 17 17 15 14 15 16 15 13 11 6 5 5 4 6 6 4 2 3 4 7 9 10 10 11 12 12 9 9 17 16 14
11 8 6 4 3 7 3 6 5 9 12 15 15 14 14 13 14 16 16 15 15 13 13 14 15 11 9 8 8 8 8 5 2 1 5 7 10 12 13 13 13 14 14 13 11 14 17 14 13
6 9 3 4 4 6 2 6 12 1 2 15 19 16 15 15 15 15 16 16 14 12 12 12 13 13 12 11 9 7 5 3 1 4 7 11 13 15 17 17 16 16 16 14 13 16 17 14 14
6 5 4 4 4 2 3 6 1 1 3 11 17 17 17 17 15 15 17 15 14 14 13 13 13 13 10 9 8 7 3 1 3 5 8 10 13 15 15 15 15 16 16 17 17 18 17 16 13
6 5 3 2 1 3 5 4 8 2 7 11 17 17 18 18 16 15 16 14 14 13 13 11 10 9 9 8 5 3 0 1 2 4 7 9 10 12 14 16 18 19 19 19 18 20 19 17 14
3 8 3 3 3 4 3 5 2 6 10 13 18 19 18 17 16 13 15 14 14 13 12 9 9 9 8 6 3 2 3 1 2 4 7 8 11 14 18 20 21 21 20 19 19 20 19 15 15
4 4 1 0 2 2 3 1 3 2 8 14 18 19 18 17 15 13 14 15 15 13 12 11 10 9 8 6 5 5 3 1 3 5 7 9 13 17 20 20 20 19 18 17 18 19 15 13 14
2 4 7 4 4 1 2 3 3 1 3 10 14 16 16 16 14 13 17 18 16 15 13 12 10 10 9 7 7 4 2 4 5 6 8 11 16 18 19 18 17 16 15 16 16 15 9 11 14
Wind_Direction
268 258 235 241 243 237 258 226 78 134 97 67 76 65 81 14 357 65 138 140 144 144 150 153 161 156 152 147 144 141 140 133 125 121 118 115 113 110 102 95 89 82 77 71 68 64 58 52 47
230 228 216 272 252 241 210 350 128 96 90 70 54 100 74 68 46 123 132 148 148 147 146 159 163 160 154 148 145 143 139 134 129 126 122 120 115 107 102 94 88 82 80 80 72 63 55 52 49
200 218 248 244 253 264 306 117 118 101 85 64 33 37 25 35 65 111 126 147 145 150 146 160 162 161 155 150 150 147 142 138 131 126 122 118 112 107 101 96 91 87 86 83 73 66 61 54 49
200 192 213 250 259 76 148 126 127 115 74 97 101 34 88 197 76 111 158 145 154 146 147 160 164 160 158 155 151 147 140 136 131 129 125 119 113 109 106 102 99 97 94 87 78 68 63 59 56
213 233 238 242 223 139 164 141 158 97 119 103 178 156 150 181 186 165 166 158 153 149 146 154 158 160 154 154 151 144 141 139 135 129 123 118 110 109 104 104 99 96 92 87 78 70 62 56 54
204 272 236 229 160 152 159 165 138 138 123 144 331 139 125 172 178 168 165 156 150 144 144 151 157 156 159 156 149 142 143 138 134 130 125 120 117 117 113 109 104 96 89 79 71 64 57 53 47
249 222 257 186 122 118 143 156 161 131 167 159 183 164 108 169 173 151 152 137 136 141 143 148 148 155 160 154 147 143 138 136 138 134 132 125 123 122 118 113 103 94 87 81 72 63 51 42 38
251 260 196 138 158 118 137 144 113 49 337 106 161 188 172 162 155 144 139 136 135 137 143 147 149 154 157 149 152 145 143 143 141 139 133 125 120 116 114 84 93 82 83 81 75 56 46 40 40
242 233 204 152 161 127 125 40 1 46 171 100 105 274 137 151 146 146 141 132 135 144 147 149 156 155 152 146 150 146 148 148 139 137 141 125 136 121 100 107 89 74 81 87 76 47 41 46 16
232 241 156 188 179 166 138 128 295 243 167 166 151 109 131 146 150 153 151 148 153 153 152 155 154 152 144 141 146 147 151 145 151 155 159 151 153 151 131 119 104 94 94 74 56 47 37 23 8
192 244 109 171 157 155 162 128 254 244 210 211 188 152 147 149 157 160 160 162 162 160 156 159 148 140 140 149 145 143 152 158 160 163 172 196 195 194 169 153 145 104 80 46 34 26 15 9 7
216 230 227 176 165 168 157 172 210 213 27 274 157 153 149 158 167 169 168 163 160 159 154 146 139 136 135 141 137 144 142 137 140 195 219 242 224 194 176 170 142 86 51 42 19 359 2 1 357
228 182 207 161 191 179 159 191 198 207 5 135 142 155 160 162 165 165 161 155 153 152 146 144 138 141 141 128 132 122 113 73 355 327 334 244 202 179 170 154 137 107 38 7 350 342 347 347 343
175 205 169 214 183 169 183 157 192 92 141 134 145 157 159 160 160 158 163 156 153 147 147 141 144 141 137 128 134 124 87 350 306 284 186 247 237 180 175 170 161 94 30 356 353 346 344 336 332
135 135 142 167 173 167 182 163 75 341 181 141 156 158 158 160 165 166 165 163 160 157 151 144 138 138 139 121 94 74 64 343 324 287 226 228 203 184 177 175 125 64 26 13 3 351 331 327 324
189 183 171 129 175 170 206 147 55 49 172 166 160 161 166 171 178 174 177 178 168 159 156 148 138 128 116 94 45 358 317 326 310 250 194 182 161 165 166 124 68 27 20 2 350 335 328 327 322
190 177 167 144 349 147 206 133 50 123 184 170 174 170 173 154 154 167 188 183 173 167 158 152 148 134 127 50 20 276 299 273 223 164 153 166 179 166 107 69 44 27 2 348 345 335 334 327 320
190 146 178 159 89 177 173 127 87 153 183 180 179 179 178 174 159 163 172 167 169 167 163 158 156 156 165 181 234 256 215 167 148 150 156 162 141 115 91 69 42 5 346 348 350 341 332 325 319
176 178 150 113 103 147 190 144 91 163 186 183 185 186 180 182 161 145 155 165 162 162 166 168 164 168 191 198 189 175 173 151 161 145 142 138 130 103 89 22 2 6 359 354 344 336 330 323 321
168 161 132 117 141 225 174 137 121 161 180 198 191 190 186 168 163 152 163 161 164 165 170 171 175 185 190 179 167 159 159 165 170 161 145 140 123 107 40 14 348 355 333 324 335 338 330 323 325
120 195 169 158 150 137 179 180 179 146 174 183 199 192 182 179 163 157 161 163 164 169 169 172 180 179 168 161 158 152 160 155 161 163 162 145 109 61 359 341 335 317 322 316 318 328 333 322 317
156 99 163 147 183 194 207 225 177 172 172 193 176 179 161 158 154 154 151 155 159 161 166 165 163 160 161 164 173 188 210 216 182 190 181 181 173 301 313 316 311 302 303 299 303 308 320 318 310
106 163 156 169 199 214 195 253 118 172 194 180 166 152 155 153 152 150 151 151 156 160 163 161 156 157 153 159 163 174 158 130 137 144 178 261 284 304 309 306 296 286 288 287 287 298 315 309 301
135 148 133 169 224 244 245 264 215 184 211 176 166 165 162 160 157 154 150 151 146 141 143 149 150 148 145 142 137 139 135 134 140 334 315 312 307 306 305 298 288 283 284 280 280 298 303 295 294
221 205 216 229 222 254 77 254 261 49 174 181 175 172 172 167 166 165 164 165 156 156 154 156 152 141 138 135 130 121 113 97 27 335 327 318 312 308 307 304 296 287 283 275 272 292 292 286 282
195 256 232 254 227 256 184 239 110 114 226 190 179 174 171 175 175 174 172 170 169 163 159 155 148 143 139 135 130 113 99 353 331 325 314 310 311 311 311 307 301 293 285 282 278 288 291 289 282
147 211 40 126 69 260 245 215 216 210 190 191 182 177 180 184 181 179 178 179 170 163 152 148 146 138 131 128 130 118 139 354 334 332 319 315 317 318 315 310 304 296 289 284 278 285 292 290 275
303 129 180 213 233 247 199 266 275 180 187 190 189 190 189 189 186 182 182 176 170 160 145 139 137 134 136 150 154 167 144 116 335 317 316 322 321 320 316 312 305 297 290 282 280 286 287 284 275
151 187 62 358 290 283 299 102 68 32 191 196 199 196 195 195 190 186 183 175 167 161 151 150 149 150 161 167 167 159 167 270 304 306 320 325 322 318 314 310 305 298 291 283 283 290 293 278 281
282 218 205 239 181 226 314 296 147 120 212 204 206 203 203 199 192 185 180 173 169 167 165 162 164 173 168 174 169 190 242 278 294 306 314 317 317 315 312 309 305 299 293 295 296 291 280 288 288